Weather in Vranje

Serbia     42°33′07″N   21°53′59″E
temp.,
°C
wind,
m/s
gust,
m/s
humid.,
%
clouds,
%
prec.,
mm/h
press.,
hPa
HPBL,
m
15 april, thu
thu1523:000nne239429 0.0 1022122
02:00−1ne229113 0.0 102256
05:00−1nne238556 0.0 1023138
08:00+2n3564100 0.0 1022922
11:00+5n445354 0.0 10211192
14:00+7nnw445027 0.0 10201255
17:00+6n34505 0.0 1019970
20:00+1nne33765 0.0 102263
16 april, fri
fri1623:00−1ne22847 0.0 102330
02:00−1ne22785 0.0 102334
05:00−1ne2273100 0.0 102318
08:00+3n23445 0.0 1022536
11:00+8nnw32350 0.0 10201107
14:00+10nw323541 0.0 10191408
17:00+8n2352100 0.0 1018413
20:00+4ne1164100 0.0 101916
17 april, sat
sat1723:00+4ene1271100 0.1 101936
02:00+2nne1296100 1.3 1019346
05:00+2nne1297100 0.7 1018132
08:00+4ene1291100 0.9 1017182
11:00+8se027794 0.1 1014680
14:00+7wnw0282100 0.1 1012435
17:00+6n0291100 1.3 1011185
20:00+5nne1293100 2.1 101191
18 april, sun
sun1823:00+5n1193100 0.1 101280
02:00+5nne1196100 0.1 101185
05:00+4w1199100 0.5 1011125
08:00+5nnw1197100 1.1 1012113
11:00+6wnw1194100 0.1 1013245
14:00+6nw1194100 0.3 1013234
17:00+6n1296100 0.2 1014138
20:00+5n229794 0.4 1015131
19 april, mon
mon1923:00+5nne229798 0.0 1015110
02:00+4n239783 0.0 1014131
05:00+4n249898 0.0 1012248
08:00+4n2395100 0.1 1012354
11:00+5n349299 0.1 1011534
14:00+5n3590100 0.1 1009555
17:00+5n368793 0.1 1009611
20:00+4nnw2694100 0.1 1010507